Regional Weather Roundup
Issued by NWS Sterling, VA

Home | Current Version | Previous Version | Text Only | Print | Product List | Glossary On
Versions: 1 2 3 4 5 6 7 8 9 10 11 12 13 14 15 16 17 18 19 20 21 22 23 24 25 26 27 28 29 30 31 32 33 34 35 36 37 38 39 40 41 42 43 44 45 46 47 48 49 50
000
ASUS41 KLWX 271411
RWRLWX

REGIONAL WEATHER ROUNDUP
NATIONAL WEATHER SERVICE BALTIMORE MD/WASHINGTON DC
1000 AM EDT SAT MAY 27 2017

Note: "FAIR" indicates few or no clouds below 12,000 feet
with no significant weather and/or obstructions to visibility.
 TC=TEMPERATURE CELSIUS

 * =Non NWS site. Station does not report precipitation (e.g. rain,
    snow, etc.), thunder, or fog.

DCZ001-MDZ009-015-VAZ040>042-051-053>054-271500-
WASHINGTON METRO

CITY           SKY/WX    TMP DP  RH WIND       PRES   REMARKS
WASHINGTON NAT PTSUNNY   69  56  62 CALM      29.93F
DULLES         PTSUNNY   66  57  72 CALM      29.93S
ANDREWS AFB    PTSUNNY   69  55  61 CALM      29.92F
FT BELVOIR     MOSUNNY   71  58  63 S6        29.92F
QUANTICO       PTSUNNY   72  61  68 E3        29.93F
COLLEGE PARK*  CLOUDY    67  56  69 CALM      29.92F
LEESBURG*      CLOUDY    66  61  82 CALM      29.93F
MANASSAS*      PTSUNNY   70  58  65 SE5       29.93F
GAITHERSBURG*  CLOUDY    68  57  68 CALM      29.93F

$$

MDZ006>007-011-014-271500-
BALTIMORE METRO

CITY           SKY/WX    TMP DP  RH WIND       PRES   REMARKS
BWI AIRPORT    CLOUDY    68  56  65 CALM      29.92S
MD SCIENCE CTR   N/A     69  54  58 MISG      29.93S
MARTIN STATE   CLOUDY    70  57  64 NW3       29.94S
ANNAPOLIS      CLOUDY    69  59  70 NW3       29.93S
FORT MEADE*    CLOUDY    64  55  72 CALM      29.95S

$$

MDZ012-015-019>023-271500-
MARYLAND EASTERN SHORE

CITY           SKY/WX    TMP DP  RH WIND       PRES   REMARKS
OCEAN CITY     PTSUNNY   69  57  65 SE3       29.93F
SALISBURY      SUNNY     73  53  49 CALM      29.92F
BAY BRIDGE AP* CLOUDY    66  55  68 CALM      29.93S
CAMBRIDGE*     PTSUNNY   72  57  60 CALM      29.92F
EASTON*        MOSUNNY   72  54  53 CALM      29.95F

$$

MDZ017>025-271500-
SOUTHERN MARYLAND

CITY           SKY/WX    TMP DP  RH WIND       PRES   REMARKS
PATUXENT RIVER MOSUNNY   71  56  58 SE5       29.92S
ST INIGOES     SUNNY     74  57  55 E6        29.91F
LEONARDTOWN*   MOSUNNY   72  54  53 CALM      29.94S

$$

MDZ003>005-271500-
NORTH CENTRAL MARYLAND

CITY           SKY/WX    TMP DP  RH WIND       PRES   REMARKS
FREDERICK*     PTSUNNY   68  64  88 CALM      29.94F
HAGERSTOWN APT LGT RAIN  62  57  83 SW3       29.93R
WESTMINSTER*   CLOUDY    66  55  68 CALM      29.92F

$$

MDZ501>502-271500-
WESTERN MARYLAND

CITY           SKY/WX    TMP DP  RH WIND       PRES   REMARKS
OAKLAND*       CLOUDY    55  55 100 CALM      29.95S
CUMBERLAND*    PTSUNNY   59  59 100 CALM      29.97R

$$

VAZ025>031-271500-
SHENANDOAH VALLEY

CITY           SKY/WX    TMP DP  RH WIND       PRES   REMARKS
WINCHESTER*    RAIN      61  57  88 CALM      29.93R
FRONT ROYAL*   CLOUDY    64  59  82 CALM      29.92S
LURAY*         CLOUDY    68  59  73 CALM      29.91F
NEW MARKET*    PTSUNNY   67  56  69 CALM      29.91F
STAUNTON*      MOSUNNY   70  58  65 SW7       29.94F
WAYNESBORO*    SUNNY     73  61  66 CALM      29.94S

$$

WVZ021-048>050-054>055-271500-
EASTERN WEST VIRGINIA PANHANDLE

CITY           SKY/WX    TMP DP  RH WIND       PRES   REMARKS
MARTINSBURG    CLOUDY    62  58  86 CALM      29.92S
PETERSBURG*    CLOUDY    63  58  84 CALM      29.94S

$$

VAZ036>039-050-271500-
CENTRAL FOOTHILLS

CITY           SKY/WX    TMP DP  RH WIND       PRES   REMARKS
CHARLOTTESVILL MOSUNNY   71  60  68 N3        29.92R
CULPEPER*      CLOUDY    67  59  77 CALM      29.94S
ORANGE*        CLOUDY    63  59  88 CALM      29.93R
GORDONSVILLE*  CLOUDY    66  59  78 CALM      29.92S
WARRENTON*     CLOUDY    71  56  59 CALM      29.92S

$$

VAZ055>057-271500-
NORTH AND CENTRAL PIEDMONT

CITY           SKY/WX    TMP DP  RH WIND       PRES   REMARKS
FREDERICKSBRG* SUNNY     71  60  67 CALM      29.91F
STAFFORD*      PTSUNNY   70  59  68 E6        29.96S

$$

NCZ024-NYZ072-PAZ021-071-VAZ022-071-271500-
OTHER REGIONAL OBSERVATIONS

CITY           SKY/WX    TMP DP  RH WIND       PRES   REMARKS
NEW YORK CITY  MOSUNNY   66  54  65 CALM      29.91R
PHILADELPHIA   CLOUDY    69  53  56 NW6       29.90F
PITTSBURGH     LGT RAIN  60  59  96 E5        29.89F
ROANOKE        MOSUNNY   76  61  59 W13       29.95F
RICHMOND       MOSUNNY   73  62  68 S6        29.91F
RALEIGH        MOSUNNY   76  63  64 VRB3      29.96S

$$

ANZ530>537-271500-
MARINE OBSERVATIONS

STATION/POSITION TIME  TEMP    WIND        PRES
                       AIR SEA DIR/SP/G
                 (UTC) (F)     (DEG/KT/KT) (MB)
THOMAS PT LIGHT  1400   67 65     CALM       N/A
BALT KEY BRIDGE  1348   66     280/  2/  2 1013.2F
COVE POINT       1348   69      50/  2/  3 1013.9F
LEWISETTA        1348   69 69   70/  4/  5 1013.1S
SOLOMONS ISLAND  1348   70 67  110/  2/  2   N/A
PINEY POINT      1348          180/  2/  3   N/A

$$




USA.gov is the U.S. government's official web portal to all federal, state and local government web resources and services.